User: anonymous   Login
Location: Cicognara
(44.9500°N, 10.4667°E)
Time: 07:19:43
(UTC+00:00)
Language:

Cosmos 1455 - Orbit

View from above orbital plane
View from above orbital plane
View from above satellite
View from above satellite

Ground track
Ground track

The orbit data is extracted from the following two-line orbital elements,

1 14032U 83037A   21263.74570760  .00000765  00000-0  34879-4 0  9994
2 14032  82.5184 347.9712 0015103 264.0489  95.9024 15.19020541 97278
Epoch (UTC): 20 September 2021 17:53:49
Eccentricity: 0.0015103
inclination: 82.5184°
perigee height: 498 km
apogee height: 519 km
right ascension of ascending node: 347.9712°
argument of perigee: 264.0489°
revolutions per day: 15.19020541
mean anomaly at epoch: 95.9024°
orbit number at epoch: 9727

The dashed part of the orbit path shows where the satellite is in the earth's shadow,  

DLR